GEFSNE_prec_meanprecacc_210.txt.gz
Total_Precipitation_Accumulation
1.45 1.43 1.37 1.26 1.25 1.27 1.28 1.35 1.45 1.30 0.99 0.77 0.73 0.72 0.77 0.79 0.89 0.86 0.80 0.96 0.96 0.89 0.89 0.89 0.87 0.85 0.83 0.85 0.94 1.10 1.21 1.26 1.30 1.39 1.46 1.44 1.40 1.44
1.26 1.32 1.33 1.25 1.21 1.21 1.25 1.29 1.37 1.42 1.20 0.81 0.70 0.70 0.75 0.78 0.87 0.78 0.73 0.88 0.86 0.84 0.80 0.77 0.75 0.73 0.71 0.71 0.74 0.82 0.92 1.01 1.08 1.20 1.38 1.54 1.60 1.63
1.10 1.12 1.14 1.17 1.22 1.21 1.23 1.27 1.31 1.37 1.34 0.99 0.79 0.78 0.83 0.84 0.83 0.77 0.70 0.68 0.68 0.78 0.74 0.70 0.67 0.65 0.64 0.63 0.64 0.67 0.70 0.78 0.88 1.01 1.15 1.31 1.44 1.48
0.95 0.99 1.00 1.03 1.08 1.12 1.18 1.24 1.27 1.28 1.30 1.13 0.90 0.81 0.79 0.77 0.75 0.73 0.68 0.62 0.57 0.68 0.67 0.64 0.62 0.59 0.57 0.56 0.58 0.62 0.63 0.66 0.73 0.80 0.88 1.01 1.15 1.27
0.85 0.87 0.89 0.95 1.00 1.01 1.04 1.07 1.09 1.11 1.15 1.12 0.94 0.78 0.72 0.68 0.69 0.66 0.61 0.57 0.52 0.56 0.58 0.58 0.58 0.58 0.58 0.57 0.58 0.58 0.57 0.55 0.57 0.63 0.70 0.82 0.92 1.02
0.79 0.83 0.86 0.89 0.90 0.91 0.95 0.96 0.96 0.97 0.99 1.02 0.96 0.85 0.78 0.73 0.75 0.73 0.68 0.62 0.57 0.52 0.57 0.57 0.58 0.58 0.54 0.51 0.50 0.51 0.52 0.54 0.59 0.65 0.71 0.77 0.84 0.92
0.76 0.79 0.83 0.92 0.95 0.92 0.88 0.86 0.86 0.91 0.96 1.03 1.00 0.86 0.74 0.70 0.70 0.66 0.66 0.66 0.65 0.60 0.59 0.53 0.48 0.43 0.41 0.43 0.46 0.49 0.53 0.58 0.62 0.66 0.71 0.77 0.82 0.89
0.74 0.72 0.72 0.78 0.78 0.80 0.79 0.77 0.81 0.88 0.99 1.04 0.94 0.78 0.62 0.56 0.56 0.61 0.68 0.74 0.68 0.52 0.52 0.51 0.47 0.46 0.41 0.38 0.47 0.50 0.51 0.53 0.56 0.58 0.61 0.67 0.74 0.80
0.71 0.66 0.62 0.60 0.62 0.54 0.59 0.63 0.65 0.74 0.77 0.70 0.64 0.56 0.52 0.52 0.62 0.71 0.71 0.70 0.58 0.45 0.51 0.56 0.49 0.47 0.41 0.42 0.48 0.45 0.45 0.48 0.52 0.57 0.59 0.62 0.66 0.72
0.56 0.51 0.47 0.44 0.42 0.44 0.46 0.53 0.51 0.50 0.50 0.47 0.45 0.43 0.43 0.47 0.58 0.71 0.74 0.73 0.60 0.49 0.49 0.53 0.44 0.41 0.37 0.38 0.46 0.45 0.45 0.48 0.54 0.60 0.64 0.65 0.67 0.71
0.45 0.41 0.40 0.37 0.44 0.51 0.50 0.51 0.42 0.36 0.40 0.45 0.48 0.48 0.50 0.51 0.53 0.65 0.77 0.85 0.75 0.51 0.42 0.45 0.39 0.37 0.37 0.36 0.39 0.45 0.44 0.46 0.49 0.52 0.55 0.59 0.64 0.69
0.36 0.37 0.42 0.41 0.48 0.55 0.51 0.46 0.40 0.34 0.35 0.40 0.44 0.46 0.44 0.47 0.54 0.54 0.69 0.96 0.86 0.62 0.35 0.41 0.44 0.51 0.65 0.40 0.33 0.35 0.39 0.43 0.47 0.51 0.54 0.59 0.65 0.68
0.34 0.33 0.36 0.47 0.54 0.56 0.49 0.41 0.42 0.46 0.42 0.41 0.42 0.43 0.44 0.46 0.49 0.48 0.55 0.90 1.12 0.83 0.39 0.64 0.82 0.65 0.82 0.57 0.35 0.32 0.34 0.37 0.43 0.48 0.54 0.61 0.70 0.85
0.34 0.32 0.36 0.49 0.51 0.49 0.47 0.46 0.51 0.49 0.41 0.43 0.46 0.44 0.41 0.40 0.40 0.43 0.46 0.52 0.69 0.77 0.56 0.83 1.21 0.92 1.04 0.86 0.48 0.36 0.35 0.36 0.45 0.57 0.63 0.74 0.79 0.86
0.37 0.39 0.42 0.44 0.43 0.42 0.45 0.50 0.49 0.44 0.43 0.46 0.46 0.43 0.40 0.40 0.43 0.48 0.51 0.50 0.50 0.48 0.49 0.58 0.85 0.93 1.14 1.11 0.71 0.44 0.43 0.42 0.45 0.60 0.71 0.78 0.79 0.83
0.41 0.40 0.40 0.38 0.39 0.41 0.43 0.44 0.45 0.46 0.50 0.51 0.48 0.45 0.46 0.49 0.52 0.53 0.57 0.58 0.62 0.53 0.47 0.46 0.55 0.85 1.04 0.82 0.82 0.68 0.55 0.61 0.55 0.67 0.77 0.80 0.84 0.89
0.50 0.45 0.42 0.40 0.39 0.38 0.39 0.40 0.42 0.46 0.51 0.51 0.55 0.57 0.56 0.56 0.54 0.53 0.60 0.66 0.70 0.56 0.48 0.47 0.50 0.59 0.70 0.76 0.81 0.65 0.58 0.64 0.73 0.86 1.01 1.04 0.95 0.98
0.62 0.51 0.42 0.39 0.39 0.38 0.39 0.42 0.45 0.48 0.52 0.58 0.62 0.66 0.69 0.67 0.63 0.57 0.59 0.68 0.69 0.57 0.51 0.50 0.58 0.73 0.69 0.60 0.61 0.70 0.73 0.80 0.85 0.93 1.11 1.30 1.12 0.96
0.57 0.44 0.36 0.34 0.35 0.39 0.43 0.48 0.49 0.49 0.57 0.67 0.73 0.77 0.80 0.77 0.73 0.68 0.64 0.66 0.64 0.56 0.53 0.56 0.72 1.06 1.09 0.67 0.43 0.61 0.95 1.04 0.98 1.01 1.09 1.30 1.44 1.20
0.41 0.36 0.35 0.36 0.40 0.45 0.49 0.53 0.56 0.58 0.64 0.68 0.73 0.79 0.87 0.90 0.83 0.74 0.70 0.72 0.73 0.66 0.58 0.53 0.63 1.02 1.46 1.24 0.90 0.65 0.77 1.13 1.36 1.40 1.18 1.04 1.09 1.09
0.32 0.33 0.37 0.42 0.47 0.51 0.54 0.57 0.62 0.66 0.66 0.71 0.74 0.78 0.87 0.98 0.89 0.75 0.75 0.74 0.80 0.79 0.69 0.52 0.51 0.72 1.09 1.31 1.10 0.70 0.71 0.84 1.19 1.62 1.57 1.36 1.12 1.00
0.35 0.39 0.43 0.49 0.57 0.62 0.65 0.66 0.67 0.65 0.67 0.72 0.73 0.76 0.82 0.94 0.95 0.85 0.84 0.85 0.79 0.76 0.72 0.59 0.57 0.68 0.90 1.15 0.97 0.68 0.66 0.65 0.68 0.79 1.16 1.68 2.21 2.28
0.43 0.48 0.51 0.56 0.62 0.68 0.70 0.70 0.69 0.64 0.65 0.74 0.79 0.79 0.84 0.89 0.85 0.90 0.90 0.92 0.92 0.83 0.76 0.70 0.62 0.63 0.68 0.77 0.84 0.75 0.66 0.61 0.58 0.63 0.84 1.01 1.27 1.56

GEFSNE_prec_meanprecacc_216.txt.gz
Total_Precipitation_Accumulation
1.51 1.49 1.42 1.29 1.27 1.29 1.30 1.37 1.48 1.32 1.01 0.80 0.76 0.75 0.79 0.82 0.92 0.90 0.83 0.97 0.97 0.91 0.91 0.90 0.89 0.87 0.84 0.86 0.96 1.13 1.24 1.29 1.33 1.42 1.49 1.46 1.41 1.45
1.31 1.38 1.38 1.29 1.24 1.23 1.27 1.31 1.40 1.44 1.22 0.83 0.72 0.73 0.78 0.81 0.89 0.81 0.76 0.90 0.88 0.85 0.81 0.78 0.77 0.74 0.73 0.72 0.75 0.84 0.94 1.04 1.12 1.24 1.42 1.56 1.62 1.64
1.14 1.17 1.19 1.21 1.25 1.24 1.25 1.29 1.33 1.40 1.36 1.00 0.81 0.80 0.86 0.86 0.86 0.79 0.71 0.70 0.70 0.80 0.75 0.71 0.69 0.67 0.66 0.65 0.65 0.68 0.72 0.79 0.90 1.05 1.21 1.37 1.47 1.50
1.00 1.04 1.05 1.07 1.11 1.14 1.20 1.26 1.29 1.31 1.32 1.16 0.92 0.83 0.81 0.79 0.77 0.75 0.70 0.63 0.58 0.70 0.69 0.66 0.64 0.61 0.59 0.58 0.60 0.63 0.65 0.68 0.75 0.82 0.92 1.06 1.20 1.31
0.90 0.91 0.93 0.98 1.02 1.03 1.06 1.10 1.11 1.13 1.17 1.14 0.96 0.81 0.74 0.71 0.71 0.68 0.63 0.59 0.54 0.58 0.60 0.60 0.60 0.61 0.61 0.61 0.61 0.61 0.59 0.57 0.59 0.65 0.73 0.85 0.96 1.05
0.84 0.88 0.90 0.92 0.92 0.92 0.96 0.97 0.97 0.99 1.00 1.04 0.98 0.87 0.81 0.77 0.79 0.76 0.71 0.64 0.59 0.53 0.59 0.59 0.62 0.61 0.57 0.55 0.54 0.55 0.55 0.57 0.61 0.67 0.74 0.80 0.87 0.94
0.80 0.83 0.89 0.97 0.98 0.94 0.90 0.89 0.89 0.93 0.98 1.05 1.02 0.88 0.76 0.73 0.73 0.68 0.69 0.70 0.68 0.63 0.61 0.57 0.52 0.48 0.45 0.48 0.51 0.53 0.57 0.61 0.65 0.70 0.75 0.81 0.85 0.91
0.78 0.76 0.77 0.83 0.83 0.84 0.83 0.81 0.84 0.91 1.02 1.07 0.97 0.80 0.64 0.58 0.58 0.64 0.71 0.78 0.72 0.55 0.55 0.54 0.51 0.51 0.46 0.43 0.51 0.54 0.55 0.57 0.59 0.61 0.65 0.72 0.78 0.83
0.75 0.70 0.66 0.64 0.66 0.58 0.63 0.66 0.68 0.77 0.80 0.73 0.67 0.58 0.54 0.54 0.64 0.74 0.73 0.73 0.61 0.48 0.54 0.59 0.53 0.52 0.46 0.47 0.53 0.49 0.49 0.52 0.56 0.60 0.63 0.66 0.71 0.76
0.60 0.55 0.51 0.47 0.46 0.47 0.49 0.56 0.54 0.53 0.52 0.49 0.46 0.44 0.44 0.48 0.60 0.73 0.76 0.75 0.63 0.51 0.52 0.57 0.47 0.44 0.41 0.43 0.50 0.49 0.48 0.51 0.57 0.63 0.67 0.69 0.71 0.75
0.48 0.45 0.45 0.41 0.47 0.54 0.52 0.53 0.44 0.38 0.41 0.46 0.49 0.49 0.50 0.52 0.54 0.67 0.79 0.87 0.78 0.54 0.45 0.48 0.42 0.40 0.40 0.39 0.41 0.48 0.47 0.49 0.52 0.55 0.59 0.63 0.68 0.73
0.39 0.40 0.45 0.44 0.51 0.58 0.52 0.48 0.41 0.35 0.36 0.41 0.45 0.46 0.45 0.48 0.55 0.56 0.71 0.98 0.88 0.64 0.37 0.44 0.47 0.54 0.69 0.42 0.35 0.38 0.42 0.46 0.50 0.53 0.57 0.62 0.68 0.72
0.36 0.35 0.38 0.49 0.56 0.58 0.51 0.42 0.44 0.48 0.44 0.42 0.43 0.44 0.45 0.47 0.50 0.49 0.56 0.91 1.14 0.85 0.41 0.67 0.85 0.67 0.85 0.61 0.38 0.36 0.37 0.40 0.46 0.52 0.57 0.64 0.73 0.88
0.37 0.35 0.38 0.51 0.53 0.51 0.48 0.47 0.52 0.51 0.42 0.45 0.47 0.45 0.42 0.40 0.41 0.44 0.47 0.53 0.70 0.79 0.58 0.86 1.24 0.95 1.07 0.89 0.52 0.39 0.38 0.39 0.48 0.59 0.66 0.77 0.82 0.89
0.39 0.41 0.45 0.47 0.45 0.44 0.47 0.52 0.51 0.46 0.45 0.48 0.48 0.44 0.41 0.41 0.44 0.49 0.52 0.52 0.52 0.50 0.51 0.61 0.88 0.96 1.18 1.15 0.75 0.48 0.47 0.45 0.48 0.63 0.73 0.80 0.82 0.86
0.43 0.43 0.42 0.41 0.41 0.42 0.44 0.46 0.46 0.47 0.51 0.53 0.50 0.47 0.48 0.51 0.54 0.55 0.59 0.61 0.64 0.56 0.50 0.49 0.59 0.89 1.09 0.86 0.86 0.71 0.58 0.64 0.58 0.69 0.79 0.83 0.87 0.91
0.53 0.48 0.45 0.43 0.42 0.40 0.41 0.42 0.44 0.48 0.53 0.53 0.57 0.60 0.59 0.59 0.57 0.56 0.63 0.70 0.74 0.60 0.52 0.51 0.55 0.64 0.75 0.81 0.85 0.69 0.61 0.66 0.75 0.89 1.03 1.06 0.96 1.00
0.64 0.53 0.45 0.42 0.42 0.41 0.41 0.44 0.46 0.50 0.54 0.60 0.65 0.69 0.72 0.70 0.66 0.60 0.63 0.73 0.73 0.61 0.56 0.55 0.64 0.78 0.74 0.64 0.65 0.74 0.76 0.83 0.88 0.95 1.13 1.32 1.13 0.98
0.60 0.47 0.39 0.37 0.38 0.41 0.46 0.50 0.51 0.51 0.58 0.69 0.75 0.79 0.82 0.80 0.75 0.71 0.68 0.70 0.68 0.60 0.56 0.60 0.77 1.11 1.14 0.71 0.47 0.64 0.97 1.06 1.00 1.02 1.11 1.31 1.45 1.21
0.44 0.39 0.38 0.38 0.42 0.47 0.51 0.55 0.57 0.60 0.65 0.70 0.75 0.81 0.90 0.93 0.86 0.76 0.72 0.75 0.77 0.69 0.61 0.57 0.67 1.05 1.50 1.27 0.92 0.67 0.79 1.14 1.37 1.41 1.19 1.05 1.10 1.09
0.34 0.35 0.39 0.45 0.50 0.54 0.56 0.59 0.64 0.68 0.68 0.73 0.76 0.80 0.89 1.01 0.91 0.77 0.78 0.76 0.83 0.82 0.73 0.56 0.54 0.75 1.12 1.33 1.12 0.72 0.72 0.85 1.19 1.63 1.58 1.37 1.13 1.01
0.36 0.41 0.45 0.51 0.59 0.64 0.67 0.68 0.69 0.67 0.69 0.75 0.76 0.79 0.85 0.97 0.98 0.88 0.86 0.88 0.82 0.79 0.74 0.61 0.60 0.71 0.94 1.18 0.99 0.69 0.67 0.65 0.68 0.80 1.17 1.69 2.22 2.29
0.45 0.49 0.53 0.58 0.64 0.69 0.72 0.72 0.70 0.66 0.66 0.76 0.81 0.81 0.86 0.91 0.88 0.92 0.92 0.94 0.94 0.85 0.79 0.73 0.64 0.66 0.71 0.79 0.86 0.76 0.66 0.62 0.58 0.63 0.85 1.02 1.27 1.57

GEFSNE_prec_meanprecacc_222.txt.gz
Total_Precipitation_Accumulation
1.57 1.54 1.46 1.33 1.30 1.32 1.34 1.41 1.51 1.35 1.04 0.82 0.78 0.78 0.81 0.84 0.95 0.92 0.86 1.00 1.00 0.94 0.94 0.94 0.92 0.89 0.87 0.88 0.98 1.14 1.26 1.31 1.35 1.44 1.53 1.51 1.46 1.49
1.37 1.43 1.43 1.34 1.28 1.27 1.30 1.35 1.42 1.47 1.24 0.85 0.74 0.76 0.81 0.83 0.92 0.82 0.78 0.93 0.91 0.89 0.85 0.82 0.81 0.78 0.76 0.75 0.78 0.86 0.95 1.05 1.14 1.26 1.45 1.61 1.67 1.69
1.21 1.23 1.25 1.27 1.31 1.29 1.28 1.33 1.37 1.42 1.38 1.02 0.83 0.82 0.88 0.89 0.89 0.81 0.74 0.73 0.73 0.84 0.80 0.75 0.73 0.71 0.70 0.69 0.69 0.71 0.73 0.81 0.92 1.07 1.23 1.40 1.51 1.55
1.07 1.10 1.11 1.13 1.18 1.21 1.25 1.30 1.33 1.33 1.34 1.18 0.94 0.85 0.83 0.81 0.80 0.77 0.72 0.67 0.62 0.75 0.74 0.71 0.68 0.65 0.63 0.62 0.64 0.67 0.67 0.70 0.76 0.84 0.94 1.09 1.25 1.36
0.97 0.98 0.99 1.04 1.10 1.11 1.13 1.15 1.15 1.15 1.19 1.16 0.98 0.82 0.76 0.73 0.73 0.70 0.65 0.62 0.57 0.62 0.65 0.66 0.65 0.65 0.65 0.64 0.66 0.65 0.62 0.59 0.60 0.66 0.74 0.87 1.00 1.12
0.91 0.96 0.97 0.97 0.98 1.00 1.04 1.05 1.02 1.02 1.03 1.06 0.99 0.89 0.83 0.78 0.81 0.79 0.74 0.67 0.62 0.56 0.62 0.63 0.66 0.66 0.62 0.59 0.57 0.60 0.59 0.59 0.63 0.68 0.75 0.81 0.89 0.99
0.84 0.88 0.95 1.04 1.05 1.01 0.97 0.95 0.95 0.99 1.02 1.08 1.04 0.90 0.78 0.75 0.75 0.70 0.71 0.72 0.71 0.66 0.65 0.60 0.55 0.51 0.49 0.51 0.54 0.58 0.63 0.66 0.68 0.71 0.76 0.82 0.87 0.95
0.81 0.79 0.80 0.88 0.89 0.91 0.90 0.87 0.90 0.97 1.07 1.11 1.00 0.82 0.66 0.60 0.60 0.66 0.73 0.80 0.74 0.57 0.58 0.58 0.54 0.54 0.49 0.46 0.55 0.59 0.61 0.64 0.64 0.65 0.68 0.74 0.80 0.86
0.79 0.74 0.69 0.67 0.70 0.64 0.69 0.73 0.75 0.83 0.86 0.77 0.71 0.61 0.57 0.56 0.66 0.76 0.75 0.75 0.63 0.50 0.57 0.63 0.57 0.56 0.50 0.50 0.57 0.54 0.55 0.60 0.64 0.66 0.67 0.70 0.74 0.79
0.66 0.59 0.55 0.51 0.49 0.51 0.54 0.62 0.60 0.59 0.58 0.53 0.50 0.48 0.48 0.51 0.63 0.77 0.79 0.78 0.65 0.54 0.54 0.60 0.50 0.48 0.46 0.47 0.55 0.54 0.54 0.58 0.66 0.71 0.74 0.74 0.75 0.79
0.54 0.50 0.49 0.45 0.52 0.58 0.56 0.57 0.48 0.42 0.46 0.51 0.53 0.53 0.55 0.56 0.58 0.70 0.82 0.90 0.81 0.57 0.47 0.50 0.45 0.43 0.44 0.43 0.45 0.52 0.53 0.56 0.60 0.64 0.67 0.69 0.72 0.77
0.44 0.44 0.50 0.48 0.55 0.61 0.55 0.51 0.45 0.38 0.39 0.43 0.47 0.49 0.47 0.50 0.57 0.58 0.73 0.99 0.90 0.67 0.39 0.46 0.50 0.57 0.73 0.47 0.39 0.42 0.47 0.52 0.57 0.62 0.65 0.68 0.73 0.75
0.40 0.40 0.42 0.53 0.59 0.61 0.54 0.45 0.47 0.51 0.46 0.45 0.46 0.46 0.46 0.49 0.51 0.50 0.57 0.92 1.15 0.86 0.43 0.69 0.88 0.71 0.89 0.65 0.43 0.40 0.42 0.46 0.52 0.59 0.64 0.69 0.78 0.91
0.40 0.38 0.42 0.55 0.56 0.54 0.51 0.50 0.55 0.54 0.45 0.48 0.50 0.48 0.44 0.42 0.42 0.45 0.48 0.55 0.71 0.80 0.59 0.87 1.26 0.98 1.10 0.92 0.56 0.44 0.42 0.44 0.53 0.65 0.72 0.82 0.86 0.93
0.42 0.45 0.48 0.51 0.49 0.47 0.50 0.54 0.53 0.47 0.47 0.50 0.49 0.46 0.43 0.43 0.46 0.51 0.54 0.53 0.53 0.51 0.53 0.62 0.90 0.98 1.20 1.18 0.78 0.52 0.51 0.49 0.51 0.67 0.77 0.84 0.85 0.88
0.47 0.47 0.45 0.44 0.44 0.45 0.47 0.48 0.48 0.48 0.53 0.55 0.51 0.49 0.49 0.52 0.55 0.56 0.60 0.62 0.66 0.57 0.51 0.51 0.61 0.91 1.12 0.89 0.88 0.75 0.61 0.69 0.62 0.72 0.83 0.85 0.88 0.93
0.57 0.52 0.48 0.46 0.44 0.43 0.43 0.44 0.45 0.49 0.54 0.54 0.58 0.61 0.60 0.60 0.58 0.57 0.64 0.71 0.75 0.62 0.54 0.53 0.57 0.66 0.78 0.83 0.88 0.71 0.64 0.69 0.78 0.92 1.06 1.09 0.98 1.02
0.67 0.56 0.48 0.44 0.44 0.43 0.44 0.46 0.48 0.51 0.56 0.62 0.66 0.70 0.73 0.71 0.67 0.61 0.64 0.74 0.75 0.63 0.58 0.57 0.66 0.81 0.78 0.68 0.68 0.76 0.78 0.85 0.90 0.97 1.15 1.34 1.16 1.00
0.62 0.48 0.41 0.38 0.40 0.43 0.48 0.52 0.53 0.52 0.60 0.71 0.77 0.80 0.84 0.81 0.77 0.73 0.69 0.71 0.69 0.61 0.58 0.62 0.79 1.14 1.17 0.74 0.50 0.66 0.99 1.08 1.03 1.05 1.14 1.34 1.47 1.23
0.46 0.41 0.39 0.40 0.44 0.49 0.53 0.57 0.60 0.62 0.68 0.72 0.77 0.83 0.92 0.95 0.88 0.78 0.74 0.76 0.78 0.71 0.63 0.59 0.69 1.08 1.52 1.29 0.95 0.70 0.81 1.16 1.40 1.44 1.22 1.07 1.12 1.12
0.36 0.37 0.41 0.47 0.52 0.56 0.59 0.62 0.66 0.70 0.70 0.75 0.78 0.82 0.91 1.02 0.93 0.79 0.79 0.78 0.85 0.84 0.75 0.58 0.56 0.77 1.14 1.36 1.14 0.74 0.74 0.87 1.21 1.64 1.59 1.39 1.15 1.02
0.38 0.43 0.47 0.53 0.60 0.66 0.68 0.69 0.71 0.69 0.71 0.77 0.78 0.81 0.86 0.99 0.99 0.89 0.88 0.90 0.85 0.81 0.77 0.64 0.62 0.74 0.96 1.20 1.00 0.71 0.69 0.68 0.70 0.82 1.18 1.70 2.24 2.31
0.46 0.50 0.54 0.59 0.65 0.71 0.74 0.73 0.73 0.68 0.69 0.78 0.83 0.84 0.88 0.93 0.90 0.94 0.94 0.96 0.97 0.88 0.82 0.76 0.67 0.68 0.73 0.81 0.88 0.77 0.68 0.63 0.60 0.65 0.86 1.03 1.28 1.57

GEFSNE_prec_meanprecacc_228.txt.gz
Total_Precipitation_Accumulation
1.65 1.60 1.52 1.38 1.34 1.34 1.36 1.44 1.54 1.38 1.06 0.84 0.80 0.80 0.84 0.88 1.00 0.96 0.90 1.06 1.06 0.99 0.99 1.00 1.00 0.98 0.97 0.99 1.06 1.20 1.30 1.34 1.38 1.46 1.55 1.54 1.48 1.52
1.44 1.50 1.48 1.38 1.31 1.29 1.32 1.38 1.45 1.49 1.26 0.86 0.76 0.77 0.83 0.87 0.96 0.86 0.81 0.98 0.97 0.94 0.90 0.88 0.87 0.84 0.83 0.83 0.86 0.92 1.00 1.09 1.17 1.29 1.47 1.64 1.70 1.72
1.29 1.30 1.31 1.31 1.34 1.32 1.32 1.36 1.40 1.45 1.41 1.03 0.84 0.83 0.91 0.92 0.93 0.86 0.79 0.77 0.78 0.90 0.85 0.80 0.78 0.77 0.76 0.75 0.75 0.76 0.78 0.85 0.96 1.11 1.27 1.44 1.56 1.59
1.15 1.18 1.18 1.19 1.23 1.25 1.30 1.34 1.36 1.36 1.37 1.20 0.96 0.87 0.85 0.84 0.83 0.81 0.76 0.71 0.67 0.81 0.80 0.76 0.74 0.71 0.69 0.68 0.71 0.73 0.73 0.75 0.80 0.89 0.98 1.13 1.28 1.40
1.04 1.05 1.07 1.12 1.17 1.17 1.19 1.19 1.19 1.20 1.22 1.19 1.01 0.86 0.79 0.75 0.76 0.73 0.69 0.65 0.60 0.66 0.70 0.72 0.72 0.71 0.71 0.70 0.72 0.72 0.69 0.65 0.65 0.70 0.79 0.91 1.03 1.15
0.95 1.00 1.02 1.04 1.05 1.06 1.10 1.10 1.08 1.08 1.08 1.10 1.03 0.93 0.86 0.81 0.83 0.82 0.77 0.70 0.65 0.59 0.66 0.68 0.71 0.71 0.66 0.63 0.62 0.66 0.67 0.66 0.69 0.73 0.79 0.85 0.92 1.02
0.87 0.91 0.98 1.09 1.11 1.06 1.03 1.02 1.03 1.07 1.10 1.14 1.09 0.95 0.82 0.78 0.78 0.73 0.74 0.75 0.74 0.69 0.68 0.63 0.58 0.54 0.52 0.55 0.58 0.63 0.68 0.71 0.74 0.76 0.80 0.86 0.91 0.98
0.84 0.82 0.84 0.92 0.94 0.96 0.95 0.92 0.96 1.05 1.16 1.19 1.06 0.87 0.70 0.63 0.63 0.69 0.76 0.83 0.77 0.59 0.60 0.61 0.58 0.57 0.52 0.49 0.59 0.63 0.65 0.68 0.69 0.69 0.72 0.78 0.84 0.90
0.83 0.77 0.72 0.70 0.74 0.68 0.74 0.78 0.80 0.89 0.93 0.85 0.78 0.68 0.61 0.60 0.70 0.80 0.78 0.77 0.66 0.52 0.59 0.65 0.60 0.59 0.52 0.52 0.61 0.58 0.59 0.64 0.68 0.71 0.72 0.73 0.77 0.82
0.69 0.62 0.58 0.53 0.52 0.55 0.58 0.66 0.64 0.63 0.64 0.60 0.57 0.54 0.54 0.56 0.67 0.82 0.84 0.83 0.69 0.56 0.56 0.62 0.53 0.51 0.50 0.51 0.59 0.58 0.58 0.62 0.70 0.76 0.78 0.78 0.78 0.81
0.56 0.52 0.51 0.47 0.55 0.61 0.59 0.61 0.51 0.46 0.51 0.57 0.60 0.60 0.63 0.63 0.64 0.77 0.89 0.98 0.87 0.61 0.49 0.53 0.47 0.45 0.48 0.48 0.50 0.55 0.56 0.59 0.64 0.68 0.72 0.74 0.77 0.80
0.45 0.46 0.52 0.51 0.58 0.64 0.58 0.54 0.47 0.41 0.42 0.47 0.52 0.55 0.54 0.57 0.64 0.65 0.79 1.05 0.95 0.71 0.42 0.49 0.52 0.59 0.76 0.51 0.43 0.45 0.49 0.55 0.60 0.66 0.71 0.75 0.80 0.80
0.43 0.42 0.44 0.56 0.61 0.64 0.57 0.47 0.50 0.53 0.48 0.48 0.49 0.50 0.51 0.53 0.55 0.54 0.61 0.96 1.19 0.90 0.45 0.71 0.90 0.73 0.92 0.69 0.47 0.43 0.45 0.49 0.56 0.63 0.69 0.76 0.85 0.98
0.44 0.41 0.44 0.58 0.59 0.57 0.54 0.53 0.58 0.57 0.47 0.50 0.53 0.51 0.48 0.46 0.45 0.48 0.51 0.58 0.74 0.83 0.62 0.89 1.28 1.00 1.13 0.96 0.59 0.48 0.46 0.48 0.58 0.70 0.78 0.89 0.94 1.01
0.45 0.48 0.51 0.54 0.53 0.51 0.53 0.57 0.55 0.49 0.48 0.52 0.52 0.48 0.46 0.46 0.49 0.54 0.57 0.58 0.57 0.56 0.57 0.66 0.93 1.01 1.24 1.21 0.81 0.55 0.55 0.53 0.56 0.72 0.83 0.90 0.92 0.96
0.51 0.50 0.47 0.45 0.47 0.48 0.50 0.51 0.50 0.50 0.55 0.57 0.54 0.51 0.52 0.56 0.59 0.60 0.64 0.65 0.69 0.61 0.54 0.54 0.63 0.94 1.15 0.92 0.92 0.79 0.65 0.72 0.66 0.76 0.87 0.91 0.94 0.98
0.59 0.54 0.50 0.47 0.46 0.44 0.45 0.46 0.48 0.52 0.57 0.56 0.61 0.64 0.63 0.63 0.61 0.60 0.67 0.74 0.78 0.64 0.56 0.55 0.59 0.69 0.81 0.87 0.92 0.75 0.67 0.72 0.81 0.95 1.10 1.13 1.03 1.06
0.69 0.58 0.49 0.46 0.46 0.44 0.45 0.48 0.50 0.53 0.57 0.64 0.68 0.72 0.75 0.74 0.70 0.64 0.67 0.76 0.77 0.65 0.60 0.58 0.68 0.83 0.80 0.71 0.70 0.79 0.81 0.88 0.93 1.00 1.18 1.37 1.20 1.03
0.64 0.51 0.43 0.40 0.41 0.45 0.49 0.53 0.54 0.54 0.62 0.73 0.79 0.82 0.86 0.83 0.79 0.75 0.71 0.73 0.71 0.63 0.60 0.64 0.81 1.16 1.20 0.76 0.52 0.68 1.01 1.10 1.05 1.07 1.15 1.36 1.50 1.26
0.49 0.44 0.42 0.42 0.46 0.51 0.54 0.58 0.61 0.64 0.69 0.73 0.79 0.85 0.94 0.97 0.90 0.79 0.75 0.77 0.80 0.73 0.65 0.60 0.71 1.10 1.55 1.32 0.98 0.72 0.83 1.18 1.41 1.46 1.24 1.09 1.15 1.14
0.38 0.40 0.43 0.49 0.54 0.58 0.60 0.63 0.68 0.71 0.71 0.77 0.80 0.84 0.93 1.04 0.95 0.81 0.81 0.80 0.87 0.86 0.77 0.59 0.57 0.79 1.17 1.39 1.17 0.76 0.77 0.89 1.22 1.66 1.61 1.41 1.17 1.05
0.40 0.45 0.49 0.55 0.62 0.68 0.70 0.71 0.73 0.71 0.72 0.78 0.79 0.82 0.88 1.00 1.01 0.91 0.89 0.92 0.86 0.83 0.78 0.66 0.64 0.76 0.99 1.23 1.03 0.73 0.71 0.70 0.72 0.83 1.20 1.72 2.26 2.34
0.48 0.53 0.56 0.61 0.67 0.72 0.75 0.75 0.74 0.69 0.70 0.80 0.85 0.85 0.89 0.95 0.91 0.96 0.96 0.98 0.98 0.90 0.84 0.78 0.69 0.70 0.76 0.84 0.91 0.80 0.70 0.66 0.62 0.67 0.88 1.04 1.30 1.59

GEFSNE_prec_meanprecacc_234.txt.gz
Total_Precipitation_Accumulation
1.71 1.68 1.59 1.45 1.41 1.40 1.41 1.48 1.58 1.42 1.09 0.86 0.82 0.82 0.86 0.90 1.02 0.99 0.92 1.09 1.09 1.02 1.03 1.05 1.04 1.02 1.00 1.04 1.15 1.30 1.41 1.45 1.48 1.56 1.64 1.61 1.54 1.56
1.48 1.54 1.52 1.43 1.36 1.34 1.36 1.41 1.48 1.52 1.29 0.87 0.76 0.78 0.85 0.89 0.99 0.89 0.85 1.03 1.01 0.98 0.95 0.92 0.92 0.89 0.87 0.88 0.93 1.03 1.11 1.20 1.27 1.37 1.55 1.71 1.76 1.77
1.33 1.35 1.35 1.36 1.39 1.36 1.35 1.39 1.43 1.48 1.43 1.05 0.85 0.84 0.92 0.95 0.96 0.88 0.81 0.81 0.83 0.96 0.91 0.85 0.83 0.81 0.81 0.82 0.82 0.84 0.87 0.94 1.06 1.20 1.35 1.51 1.62 1.64
1.20 1.23 1.23 1.24 1.27 1.29 1.34 1.37 1.39 1.39 1.39 1.23 0.98 0.89 0.88 0.86 0.86 0.84 0.78 0.73 0.70 0.85 0.86 0.82 0.79 0.75 0.73 0.74 0.78 0.80 0.80 0.82 0.88 0.96 1.06 1.20 1.35 1.46
1.08 1.11 1.12 1.17 1.22 1.22 1.24 1.24 1.23 1.23 1.25 1.21 1.04 0.88 0.82 0.78 0.80 0.77 0.72 0.68 0.63 0.69 0.74 0.77 0.77 0.75 0.75 0.74 0.78 0.79 0.76 0.72 0.72 0.77 0.85 0.97 1.09 1.21
0.99 1.05 1.07 1.09 1.10 1.12 1.16 1.16 1.12 1.12 1.12 1.13 1.06 0.96 0.90 0.85 0.87 0.86 0.82 0.74 0.68 0.62 0.68 0.71 0.77 0.77 0.72 0.68 0.67 0.71 0.72 0.73 0.76 0.80 0.86 0.91 0.97 1.07
0.90 0.94 1.02 1.13 1.16 1.12 1.09 1.08 1.08 1.12 1.15 1.19 1.14 1.00 0.87 0.83 0.82 0.77 0.79 0.79 0.77 0.72 0.70 0.65 0.62 0.60 0.58 0.60 0.63 0.67 0.73 0.77 0.81 0.83 0.87 0.93 0.97 1.03
0.86 0.84 0.86 0.95 0.98 1.01 1.00 0.98 1.02 1.12 1.22 1.25 1.12 0.93 0.76 0.70 0.69 0.74 0.81 0.87 0.80 0.62 0.62 0.63 0.61 0.62 0.57 0.54 0.64 0.67 0.70 0.73 0.74 0.74 0.78 0.84 0.89 0.95
0.85 0.80 0.75 0.74 0.78 0.72 0.79 0.84 0.87 0.96 1.00 0.92 0.85 0.74 0.67 0.66 0.76 0.86 0.83 0.81 0.69 0.56 0.63 0.69 0.64 0.63 0.57 0.58 0.67 0.63 0.64 0.69 0.73 0.75 0.75 0.77 0.81 0.86
0.71 0.65 0.61 0.56 0.56 0.61 0.64 0.71 0.69 0.69 0.70 0.65 0.63 0.60 0.59 0.62 0.74 0.88 0.88 0.87 0.73 0.60 0.60 0.66 0.56 0.55 0.54 0.56 0.64 0.63 0.63 0.67 0.73 0.79 0.81 0.80 0.80 0.84
0.57 0.54 0.54 0.50 0.58 0.66 0.64 0.65 0.56 0.50 0.56 0.63 0.67 0.67 0.69 0.70 0.71 0.83 0.94 1.03 0.92 0.65 0.53 0.57 0.51 0.48 0.51 0.52 0.54 0.59 0.59 0.62 0.66 0.71 0.75 0.77 0.79 0.82
0.46 0.47 0.54 0.53 0.60 0.67 0.61 0.58 0.51 0.44 0.45 0.52 0.57 0.61 0.59 0.62 0.71 0.71 0.86 1.11 1.00 0.75 0.45 0.53 0.57 0.63 0.80 0.55 0.46 0.48 0.51 0.57 0.63 0.69 0.74 0.79 0.84 0.84
0.45 0.43 0.46 0.58 0.64 0.67 0.60 0.51 0.53 0.56 0.51 0.52 0.54 0.54 0.55 0.57 0.60 0.60 0.66 1.00 1.23 0.93 0.48 0.74 0.94 0.77 0.95 0.72 0.49 0.46 0.47 0.52 0.59 0.67 0.73 0.80 0.91 1.03
0.47 0.44 0.47 0.61 0.62 0.61 0.57 0.56 0.62 0.60 0.51 0.54 0.57 0.55 0.52 0.50 0.50 0.53 0.56 0.62 0.78 0.86 0.64 0.92 1.32 1.04 1.17 0.99 0.62 0.51 0.49 0.51 0.61 0.74 0.81 0.91 0.97 1.06
0.48 0.52 0.55 0.58 0.56 0.54 0.57 0.60 0.58 0.52 0.51 0.55 0.55 0.52 0.49 0.50 0.53 0.58 0.61 0.61 0.61 0.59 0.60 0.69 0.97 1.05 1.28 1.26 0.85 0.58 0.58 0.56 0.59 0.74 0.86 0.93 0.95 1.01
0.55 0.54 0.51 0.49 0.50 0.51 0.53 0.53 0.52 0.53 0.58 0.60 0.57 0.55 0.55 0.58 0.62 0.63 0.67 0.68 0.72 0.63 0.57 0.56 0.66 0.96 1.18 0.95 0.95 0.81 0.67 0.76 0.70 0.80 0.91 0.94 0.98 1.02
0.63 0.57 0.53 0.50 0.48 0.47 0.47 0.48 0.50 0.54 0.60 0.59 0.64 0.67 0.66 0.65 0.63 0.62 0.70 0.77 0.81 0.66 0.58 0.57 0.61 0.71 0.83 0.89 0.95 0.77 0.70 0.76 0.85 0.99 1.14 1.17 1.07 1.10
0.72 0.61 0.52 0.48 0.48 0.46 0.48 0.50 0.52 0.55 0.59 0.66 0.71 0.75 0.77 0.76 0.72 0.66 0.69 0.78 0.79 0.66 0.61 0.60 0.69 0.85 0.82 0.73 0.73 0.81 0.83 0.91 0.96 1.03 1.21 1.41 1.23 1.07
0.68 0.54 0.45 0.43 0.44 0.47 0.51 0.55 0.56 0.55 0.63 0.74 0.81 0.84 0.88 0.85 0.81 0.77 0.73 0.75 0.73 0.65 0.62 0.66 0.83 1.18 1.21 0.78 0.54 0.70 1.03 1.13 1.08 1.10 1.18 1.38 1.53 1.30
0.52 0.47 0.45 0.45 0.48 0.53 0.56 0.60 0.62 0.65 0.70 0.75 0.80 0.87 0.95 0.98 0.91 0.82 0.77 0.80 0.82 0.75 0.67 0.62 0.73 1.11 1.56 1.33 0.99 0.74 0.85 1.20 1.44 1.48 1.26 1.11 1.17 1.17
0.42 0.44 0.47 0.52 0.57 0.60 0.62 0.65 0.69 0.73 0.73 0.78 0.81 0.85 0.94 1.06 0.96 0.82 0.82 0.82 0.89 0.88 0.78 0.61 0.58 0.81 1.19 1.41 1.19 0.77 0.78 0.91 1.24 1.68 1.63 1.43 1.20 1.08
0.43 0.49 0.53 0.58 0.65 0.70 0.72 0.73 0.74 0.72 0.74 0.80 0.81 0.83 0.89 1.02 1.02 0.92 0.91 0.93 0.88 0.84 0.80 0.67 0.66 0.77 1.00 1.25 1.04 0.74 0.72 0.71 0.74 0.85 1.21 1.74 2.28 2.37
0.52 0.56 0.59 0.64 0.70 0.75 0.78 0.77 0.76 0.71 0.71 0.81 0.86 0.86 0.90 0.96 0.92 0.97 0.97 0.99 1.00 0.91 0.85 0.79 0.70 0.71 0.76 0.85 0.92 0.81 0.72 0.67 0.64 0.69 0.90 1.06 1.31 1.60

GEFSNE_prec_meanprecacc_240.txt.gz
Total_Precipitation_Accumulation
1.74 1.70 1.62 1.49 1.46 1.45 1.45 1.52 1.63 1.46 1.13 0.89 0.86 0.86 0.90 0.93 1.05 1.01 0.94 1.12 1.13 1.06 1.07 1.08 1.08 1.06 1.03 1.06 1.17 1.33 1.44 1.48 1.51 1.59 1.69 1.67 1.61 1.64
1.50 1.56 1.55 1.46 1.40 1.38 1.41 1.46 1.53 1.57 1.33 0.90 0.79 0.81 0.88 0.93 1.03 0.92 0.88 1.06 1.06 1.03 0.99 0.95 0.94 0.91 0.89 0.90 0.95 1.05 1.14 1.23 1.31 1.41 1.59 1.76 1.83 1.84
1.36 1.37 1.38 1.38 1.42 1.39 1.39 1.44 1.48 1.52 1.47 1.08 0.87 0.86 0.95 0.98 1.00 0.92 0.86 0.86 0.88 1.02 0.97 0.91 0.87 0.84 0.83 0.84 0.84 0.86 0.89 0.96 1.08 1.24 1.40 1.57 1.69 1.71
1.22 1.25 1.25 1.26 1.29 1.32 1.37 1.41 1.43 1.42 1.43 1.25 1.00 0.91 0.90 0.90 0.90 0.89 0.84 0.79 0.75 0.93 0.93 0.89 0.85 0.80 0.77 0.77 0.80 0.82 0.81 0.83 0.90 0.99 1.11 1.27 1.44 1.55
1.10 1.12 1.14 1.19 1.24 1.24 1.26 1.26 1.25 1.26 1.28 1.24 1.06 0.90 0.85 0.82 0.85 0.83 0.79 0.75 0.69 0.76 0.82 0.85 0.84 0.82 0.81 0.80 0.82 0.82 0.78 0.73 0.74 0.80 0.90 1.03 1.17 1.31
1.01 1.07 1.09 1.11 1.12 1.13 1.18 1.18 1.15 1.15 1.16 1.17 1.10 0.99 0.93 0.89 0.93 0.93 0.90 0.81 0.76 0.69 0.75 0.77 0.83 0.83 0.77 0.73 0.71 0.74 0.76 0.76 0.79 0.84 0.91 0.96 1.03 1.14
0.92 0.96 1.03 1.15 1.18 1.14 1.11 1.10 1.11 1.15 1.19 1.24 1.19 1.05 0.92 0.88 0.88 0.85 0.88 0.87 0.85 0.79 0.76 0.71 0.66 0.63 0.62 0.64 0.67 0.70 0.77 0.82 0.86 0.89 0.93 0.98 1.02 1.09
0.89 0.87 0.89 0.97 0.99 1.03 1.03 1.01 1.06 1.16 1.26 1.30 1.18 0.99 0.82 0.74 0.73 0.80 0.89 0.95 0.89 0.69 0.67 0.67 0.65 0.66 0.61 0.59 0.69 0.72 0.74 0.78 0.79 0.81 0.84 0.90 0.95 1.01
0.89 0.83 0.77 0.76 0.80 0.74 0.81 0.87 0.90 1.00 1.04 0.96 0.89 0.79 0.72 0.70 0.81 0.91 0.90 0.89 0.77 0.63 0.68 0.75 0.70 0.69 0.63 0.64 0.73 0.68 0.69 0.74 0.78 0.81 0.82 0.83 0.87 0.92
0.74 0.68 0.64 0.59 0.58 0.63 0.65 0.73 0.72 0.72 0.74 0.70 0.68 0.65 0.65 0.68 0.80 0.95 0.97 0.97 0.83 0.70 0.68 0.74 0.64 0.62 0.61 0.62 0.70 0.68 0.67 0.71 0.79 0.85 0.86 0.85 0.85 0.89
0.60 0.57 0.56 0.53 0.61 0.69 0.66 0.67 0.58 0.53 0.60 0.68 0.73 0.73 0.77 0.77 0.78 0.91 1.04 1.13 1.03 0.74 0.60 0.63 0.57 0.53 0.57 0.58 0.60 0.64 0.63 0.66 0.71 0.75 0.78 0.81 0.83 0.85
0.50 0.51 0.58 0.56 0.63 0.70 0.64 0.61 0.54 0.48 0.49 0.55 0.61 0.66 0.65 0.68 0.77 0.78 0.93 1.19 1.09 0.83 0.52 0.58 0.62 0.68 0.86 0.60 0.51 0.52 0.55 0.61 0.66 0.72 0.77 0.83 0.88 0.87
0.49 0.48 0.50 0.62 0.67 0.70 0.63 0.54 0.57 0.60 0.56 0.56 0.58 0.59 0.60 0.62 0.65 0.64 0.72 1.06 1.28 0.99 0.54 0.80 0.99 0.81 0.99 0.76 0.53 0.49 0.50 0.54 0.61 0.70 0.76 0.84 0.95 1.08
0.50 0.47 0.50 0.64 0.66 0.64 0.61 0.60 0.65 0.64 0.55 0.58 0.61 0.59 0.56 0.54 0.53 0.56 0.60 0.67 0.82 0.90 0.68 0.96 1.35 1.07 1.20 1.02 0.65 0.53 0.51 0.53 0.63 0.76 0.83 0.94 1.01 1.10
0.52 0.55 0.58 0.61 0.60 0.57 0.60 0.64 0.61 0.55 0.55 0.58 0.58 0.55 0.52 0.53 0.56 0.62 0.65 0.67 0.67 0.64 0.64 0.73 1.00 1.08 1.31 1.28 0.87 0.60 0.60 0.58 0.60 0.76 0.88 0.96 0.98 1.04
0.58 0.57 0.55 0.52 0.54 0.55 0.56 0.56 0.55 0.56 0.61 0.64 0.60 0.58 0.58 0.61 0.65 0.66 0.71 0.72 0.77 0.68 0.61 0.60 0.70 1.01 1.21 0.98 0.97 0.83 0.69 0.77 0.72 0.82 0.93 0.97 1.00 1.06
0.65 0.60 0.55 0.52 0.51 0.49 0.50 0.51 0.53 0.57 0.63 0.62 0.67 0.70 0.69 0.69 0.67 0.65 0.73 0.80 0.84 0.69 0.61 0.59 0.64 0.74 0.87 0.92 0.97 0.80 0.71 0.77 0.87 1.00 1.16 1.19 1.10 1.13
0.74 0.63 0.54 0.50 0.50 0.49 0.50 0.53 0.55 0.58 0.62 0.69 0.74 0.78 0.81 0.79 0.75 0.69 0.71 0.81 0.82 0.69 0.63 0.62 0.71 0.87 0.85 0.75 0.75 0.83 0.84 0.92 0.98 1.05 1.23 1.43 1.26 1.10
0.70 0.56 0.47 0.45 0.46 0.49 0.53 0.57 0.58 0.57 0.65 0.77 0.83 0.87 0.91 0.88 0.84 0.80 0.75 0.77 0.75 0.67 0.64 0.68 0.85 1.20 1.24 0.80 0.55 0.71 1.05 1.14 1.09 1.12 1.20 1.41 1.56 1.32
0.55 0.50 0.48 0.48 0.51 0.56 0.59 0.62 0.64 0.67 0.72 0.77 0.82 0.89 0.97 1.01 0.94 0.84 0.79 0.82 0.84 0.77 0.69 0.64 0.75 1.14 1.59 1.35 1.01 0.75 0.86 1.21 1.45 1.50 1.28 1.13 1.19 1.18
0.46 0.48 0.51 0.55 0.60 0.63 0.65 0.67 0.72 0.75 0.75 0.80 0.83 0.87 0.96 1.07 0.98 0.84 0.84 0.83 0.91 0.90 0.80 0.62 0.60 0.82 1.21 1.43 1.21 0.79 0.80 0.92 1.25 1.69 1.65 1.45 1.22 1.09
0.48 0.53 0.57 0.62 0.69 0.74 0.76 0.76 0.77 0.75 0.76 0.82 0.83 0.85 0.90 1.03 1.04 0.94 0.92 0.95 0.89 0.86 0.81 0.69 0.67 0.79 1.02 1.27 1.06 0.75 0.73 0.72 0.75 0.85 1.22 1.75 2.30 2.39
0.56 0.60 0.63 0.68 0.74 0.79 0.81 0.81 0.79 0.74 0.74 0.83 0.88 0.88 0.92 0.98 0.94 0.99 0.99 1.01 1.02 0.93 0.87 0.81 0.72 0.72 0.78 0.86 0.94 0.82 0.73 0.68 0.65 0.70 0.91 1.07 1.32 1.61

GEFSNE_prec_meanprecacc_246.txt.gz
Total_Precipitation_Accumulation
1.76 1.72 1.64 1.50 1.47 1.46 1.47 1.55 1.66 1.50 1.15 0.91 0.88 0.89 0.94 0.96 1.08 1.04 0.96 1.14 1.15 1.08 1.09 1.11 1.12 1.10 1.08 1.12 1.23 1.37 1.48 1.52 1.55 1.63 1.72 1.70 1.64 1.67
1.52 1.58 1.56 1.47 1.41 1.39 1.43 1.48 1.55 1.60 1.36 0.93 0.81 0.84 0.92 0.96 1.06 0.95 0.90 1.08 1.08 1.06 1.02 0.99 0.98 0.96 0.95 0.96 1.00 1.10 1.18 1.25 1.33 1.44 1.63 1.80 1.86 1.87
1.38 1.39 1.39 1.40 1.43 1.40 1.40 1.45 1.49 1.54 1.49 1.10 0.89 0.89 0.97 1.00 1.02 0.95 0.88 0.89 0.90 1.05 1.01 0.96 0.92 0.89 0.88 0.89 0.89 0.92 0.95 1.01 1.11 1.26 1.42 1.59 1.71 1.74
1.25 1.27 1.27 1.28 1.31 1.34 1.38 1.42 1.44 1.44 1.45 1.27 1.02 0.92 0.91 0.91 0.92 0.91 0.86 0.82 0.78 0.95 0.97 0.94 0.91 0.86 0.83 0.83 0.85 0.86 0.85 0.88 0.94 1.02 1.13 1.29 1.45 1.57
1.13 1.15 1.16 1.21 1.26 1.26 1.28 1.28 1.27 1.28 1.31 1.26 1.07 0.91 0.85 0.83 0.87 0.86 0.82 0.79 0.73 0.80 0.87 0.92 0.92 0.89 0.88 0.86 0.88 0.87 0.82 0.77 0.78 0.84 0.93 1.06 1.19 1.33
1.03 1.09 1.11 1.13 1.14 1.16 1.20 1.20 1.18 1.18 1.18 1.20 1.11 1.00 0.94 0.90 0.95 0.96 0.93 0.85 0.82 0.75 0.81 0.84 0.91 0.92 0.85 0.79 0.76 0.79 0.81 0.81 0.84 0.89 0.95 1.00 1.07 1.17
0.95 0.98 1.06 1.17 1.20 1.16 1.13 1.13 1.14 1.19 1.22 1.26 1.21 1.06 0.93 0.89 0.90 0.87 0.90 0.90 0.89 0.85 0.84 0.78 0.72 0.70 0.71 0.73 0.73 0.76 0.81 0.86 0.91 0.94 0.99 1.04 1.07 1.13
0.92 0.90 0.92 1.00 1.02 1.06 1.05 1.04 1.09 1.19 1.29 1.32 1.20 1.01 0.83 0.76 0.75 0.81 0.92 0.99 0.94 0.74 0.73 0.75 0.71 0.71 0.67 0.65 0.76 0.77 0.79 0.83 0.85 0.87 0.90 0.95 1.00 1.06
0.91 0.85 0.80 0.79 0.84 0.77 0.84 0.90 0.94 1.04 1.08 0.99 0.92 0.80 0.74 0.72 0.83 0.93 0.92 0.92 0.80 0.68 0.74 0.82 0.77 0.76 0.68 0.69 0.80 0.75 0.75 0.80 0.84 0.87 0.87 0.88 0.91 0.96
0.76 0.70 0.66 0.62 0.62 0.66 0.69 0.77 0.75 0.75 0.77 0.73 0.70 0.68 0.67 0.70 0.83 0.98 1.01 1.01 0.88 0.75 0.73 0.81 0.72 0.70 0.69 0.69 0.77 0.74 0.73 0.77 0.84 0.89 0.90 0.89 0.88 0.92
0.63 0.59 0.59 0.56 0.64 0.72 0.69 0.70 0.61 0.56 0.63 0.71 0.76 0.77 0.82 0.83 0.83 0.96 1.10 1.19 1.09 0.80 0.65 0.69 0.64 0.60 0.64 0.65 0.67 0.71 0.69 0.71 0.75 0.79 0.81 0.83 0.85 0.87
0.52 0.53 0.60 0.58 0.66 0.74 0.67 0.63 0.57 0.50 0.52 0.58 0.64 0.69 0.69 0.74 0.83 0.82 0.98 1.24 1.15 0.89 0.57 0.63 0.68 0.74 0.93 0.67 0.57 0.58 0.60 0.65 0.70 0.75 0.80 0.85 0.89 0.88
0.51 0.49 0.52 0.65 0.70 0.73 0.67 0.57 0.61 0.63 0.60 0.61 0.62 0.62 0.64 0.66 0.69 0.69 0.77 1.11 1.34 1.04 0.58 0.84 1.05 0.87 1.05 0.82 0.59 0.54 0.54 0.58 0.64 0.72 0.78 0.86 0.96 1.09
0.52 0.49 0.52 0.67 0.69 0.68 0.64 0.64 0.70 0.68 0.59 0.63 0.66 0.64 0.60 0.58 0.58 0.61 0.65 0.72 0.87 0.94 0.72 1.00 1.41 1.12 1.25 1.08 0.71 0.59 0.55 0.57 0.66 0.78 0.85 0.96 1.03 1.12
0.54 0.57 0.60 0.64 0.63 0.61 0.63 0.68 0.66 0.59 0.59 0.63 0.63 0.60 0.57 0.58 0.61 0.67 0.70 0.71 0.71 0.68 0.68 0.77 1.05 1.13 1.36 1.34 0.92 0.64 0.64 0.62 0.63 0.79 0.90 0.97 1.00 1.07
0.61 0.59 0.57 0.55 0.56 0.58 0.59 0.60 0.59 0.60 0.65 0.68 0.65 0.62 0.63 0.66 0.69 0.71 0.75 0.76 0.81 0.73 0.65 0.64 0.74 1.05 1.25 1.01 1.01 0.87 0.72 0.81 0.75 0.84 0.95 0.99 1.03 1.08
0.68 0.62 0.57 0.54 0.53 0.52 0.53 0.54 0.56 0.61 0.67 0.66 0.71 0.74 0.73 0.72 0.70 0.69 0.77 0.83 0.87 0.72 0.64 0.62 0.67 0.77 0.90 0.96 1.01 0.83 0.74 0.80 0.89 1.03 1.18 1.22 1.12 1.15
0.77 0.66 0.57 0.52 0.52 0.51 0.52 0.56 0.58 0.61 0.65 0.72 0.77 0.81 0.84 0.82 0.78 0.72 0.74 0.83 0.84 0.71 0.66 0.64 0.73 0.89 0.87 0.78 0.77 0.85 0.87 0.94 1.00 1.07 1.25 1.45 1.28 1.12
0.73 0.58 0.50 0.47 0.48 0.51 0.55 0.59 0.60 0.60 0.68 0.79 0.86 0.90 0.93 0.90 0.86 0.82 0.77 0.79 0.77 0.69 0.66 0.70 0.87 1.22 1.26 0.82 0.57 0.72 1.06 1.16 1.10 1.13 1.22 1.43 1.58 1.34
0.58 0.53 0.50 0.51 0.54 0.58 0.61 0.64 0.66 0.69 0.74 0.79 0.84 0.91 1.00 1.03 0.96 0.86 0.81 0.84 0.86 0.79 0.71 0.66 0.76 1.15 1.61 1.36 1.02 0.77 0.87 1.22 1.46 1.51 1.29 1.15 1.21 1.20
0.49 0.50 0.53 0.58 0.63 0.66 0.68 0.70 0.74 0.77 0.77 0.82 0.85 0.89 0.98 1.10 1.00 0.86 0.86 0.85 0.93 0.92 0.82 0.64 0.62 0.84 1.22 1.45 1.23 0.81 0.82 0.94 1.27 1.71 1.66 1.46 1.24 1.11
0.51 0.57 0.61 0.66 0.72 0.77 0.79 0.80 0.81 0.77 0.79 0.84 0.85 0.87 0.93 1.05 1.06 0.96 0.94 0.97 0.91 0.88 0.83 0.71 0.69 0.81 1.04 1.29 1.08 0.76 0.75 0.74 0.76 0.87 1.23 1.76 2.32 2.41
0.60 0.64 0.67 0.72 0.77 0.82 0.85 0.84 0.83 0.77 0.77 0.86 0.90 0.90 0.94 1.00 0.96 1.01 1.01 1.03 1.04 0.95 0.89 0.83 0.74 0.74 0.80 0.88 0.95 0.84 0.74 0.70 0.66 0.71 0.92 1.08 1.33 1.62

GEFSNE_prec_meanprecacc_252.txt.gz
Total_Precipitation_Accumulation
1.81 1.76 1.67 1.52 1.49 1.48 1.49 1.57 1.70 1.54 1.19 0.93 0.90 0.91 0.97 1.00 1.13 1.08 0.99 1.16 1.16 1.10 1.11 1.14 1.15 1.13 1.11 1.15 1.28 1.45 1.55 1.58 1.59 1.67 1.75 1.73 1.66 1.69
1.57 1.62 1.58 1.48 1.42 1.41 1.44 1.49 1.57 1.63 1.40 0.96 0.83 0.85 0.94 0.98 1.09 0.98 0.93 1.11 1.10 1.07 1.04 1.01 1.00 0.98 0.97 0.98 1.04 1.15 1.23 1.32 1.40 1.50 1.67 1.83 1.88 1.89
1.42 1.43 1.41 1.41 1.44 1.41 1.41 1.46 1.51 1.56 1.51 1.12 0.92 0.92 1.01 1.04 1.06 0.99 0.92 0.92 0.93 1.07 1.03 0.98 0.94 0.91 0.90 0.91 0.92 0.95 0.99 1.05 1.17 1.33 1.49 1.65 1.75 1.76
1.31 1.31 1.30 1.30 1.33 1.35 1.40 1.43 1.45 1.45 1.46 1.28 1.03 0.94 0.95 0.96 0.96 0.96 0.91 0.86 0.81 0.98 1.00 0.96 0.93 0.88 0.85 0.85 0.87 0.89 0.88 0.91 0.98 1.06 1.18 1.34 1.50 1.60
1.19 1.21 1.20 1.26 1.30 1.29 1.30 1.30 1.29 1.29 1.32 1.28 1.09 0.92 0.87 0.86 0.91 0.91 0.86 0.83 0.77 0.83 0.90 0.95 0.95 0.92 0.90 0.88 0.90 0.89 0.85 0.80 0.81 0.88 0.98 1.11 1.24 1.37
1.06 1.13 1.15 1.17 1.18 1.19 1.24 1.24 1.21 1.21 1.20 1.22 1.14 1.02 0.95 0.92 0.97 0.99 0.97 0.89 0.84 0.78 0.84 0.87 0.95 0.96 0.88 0.82 0.79 0.82 0.84 0.84 0.87 0.93 0.99 1.04 1.12 1.23
0.98 1.01 1.08 1.20 1.24 1.19 1.16 1.16 1.18 1.23 1.25 1.29 1.23 1.08 0.95 0.90 0.91 0.88 0.92 0.93 0.92 0.88 0.86 0.80 0.75 0.72 0.73 0.75 0.76 0.79 0.85 0.90 0.95 0.98 1.02 1.08 1.12 1.18
0.95 0.93 0.94 1.02 1.05 1.08 1.08 1.07 1.13 1.23 1.33 1.36 1.23 1.03 0.84 0.77 0.76 0.82 0.93 1.00 0.96 0.76 0.74 0.77 0.73 0.73 0.69 0.67 0.79 0.81 0.82 0.86 0.89 0.91 0.93 0.99 1.05 1.11
0.95 0.88 0.83 0.82 0.86 0.80 0.87 0.93 0.97 1.08 1.11 1.02 0.94 0.82 0.75 0.73 0.84 0.95 0.93 0.93 0.81 0.69 0.75 0.84 0.79 0.78 0.71 0.72 0.83 0.78 0.79 0.84 0.88 0.91 0.91 0.92 0.95 1.00
0.81 0.73 0.69 0.64 0.64 0.69 0.72 0.80 0.77 0.77 0.80 0.75 0.71 0.69 0.68 0.72 0.84 1.00 1.02 1.03 0.89 0.77 0.75 0.83 0.74 0.72 0.71 0.72 0.81 0.78 0.78 0.83 0.90 0.94 0.95 0.93 0.93 0.96
0.68 0.63 0.61 0.57 0.66 0.75 0.72 0.73 0.64 0.59 0.66 0.74 0.79 0.80 0.84 0.86 0.86 0.99 1.13 1.23 1.12 0.83 0.67 0.71 0.66 0.63 0.67 0.69 0.72 0.76 0.75 0.77 0.81 0.84 0.86 0.87 0.89 0.91
0.57 0.56 0.63 0.61 0.69 0.76 0.69 0.66 0.61 0.54 0.55 0.61 0.67 0.72 0.71 0.77 0.86 0.85 1.01 1.28 1.18 0.93 0.60 0.66 0.70 0.77 0.96 0.70 0.61 0.62 0.64 0.71 0.76 0.80 0.84 0.89 0.93 0.92
0.54 0.52 0.54 0.68 0.73 0.76 0.68 0.59 0.64 0.67 0.63 0.64 0.66 0.65 0.66 0.69 0.73 0.73 0.81 1.15 1.38 1.08 0.61 0.87 1.08 0.89 1.08 0.86 0.62 0.57 0.57 0.61 0.68 0.76 0.82 0.89 1.00 1.12
0.54 0.51 0.54 0.70 0.72 0.70 0.67 0.66 0.72 0.71 0.62 0.67 0.70 0.69 0.64 0.61 0.61 0.64 0.68 0.75 0.90 0.98 0.76 1.03 1.44 1.15 1.28 1.10 0.74 0.62 0.58 0.59 0.69 0.81 0.87 0.99 1.05 1.14
0.57 0.60 0.63 0.66 0.65 0.62 0.65 0.70 0.68 0.61 0.62 0.67 0.67 0.64 0.62 0.62 0.64 0.70 0.73 0.74 0.75 0.72 0.72 0.80 1.08 1.16 1.39 1.37 0.95 0.67 0.67 0.65 0.66 0.81 0.92 0.99 1.02 1.08
0.63 0.62 0.59 0.57 0.58 0.60 0.61 0.62 0.61 0.63 0.68 0.71 0.69 0.66 0.67 0.71 0.75 0.76 0.79 0.79 0.84 0.77 0.70 0.68 0.78 1.08 1.29 1.05 1.04 0.90 0.75 0.84 0.78 0.87 0.97 1.00 1.04 1.09
0.70 0.64 0.59 0.56 0.55 0.55 0.56 0.57 0.59 0.64 0.70 0.70 0.75 0.78 0.77 0.76 0.75 0.74 0.82 0.88 0.92 0.76 0.69 0.67 0.71 0.82 0.94 0.99 1.05 0.87 0.77 0.83 0.92 1.05 1.20 1.24 1.14 1.17
0.80 0.68 0.59 0.55 0.54 0.54 0.56 0.59 0.61 0.64 0.69 0.76 0.81 0.85 0.88 0.87 0.83 0.76 0.79 0.89 0.90 0.76 0.70 0.68 0.77 0.94 0.92 0.83 0.81 0.89 0.90 0.96 1.02 1.09 1.28 1.48 1.31 1.15
0.77 0.61 0.52 0.50 0.50 0.53 0.58 0.63 0.64 0.63 0.71 0.83 0.90 0.94 0.98 0.95 0.90 0.86 0.81 0.84 0.82 0.74 0.71 0.74 0.91 1.26 1.30 0.85 0.60 0.75 1.08 1.17 1.12 1.15 1.25 1.45 1.61 1.37
0.63 0.57 0.54 0.54 0.57 0.61 0.64 0.67 0.70 0.72 0.78 0.83 0.88 0.95 1.04 1.08 1.00 0.90 0.85 0.87 0.89 0.82 0.74 0.69 0.80 1.19 1.64 1.39 1.04 0.79 0.89 1.24 1.48 1.53 1.31 1.17 1.24 1.23
0.54 0.55 0.57 0.62 0.67 0.70 0.71 0.73 0.77 0.81 0.80 0.85 0.88 0.93 1.02 1.14 1.05 0.90 0.89 0.89 0.96 0.95 0.85 0.67 0.64 0.86 1.25 1.47 1.25 0.83 0.84 0.95 1.28 1.72 1.68 1.48 1.26 1.13
0.55 0.61 0.64 0.69 0.76 0.81 0.83 0.83 0.84 0.81 0.82 0.87 0.88 0.90 0.96 1.08 1.09 0.99 0.98 1.00 0.94 0.90 0.86 0.73 0.71 0.82 1.06 1.31 1.10 0.78 0.76 0.76 0.78 0.88 1.24 1.77 2.33 2.42
0.63 0.67 0.70 0.75 0.81 0.85 0.88 0.88 0.86 0.80 0.80 0.89 0.93 0.93 0.97 1.02 0.99 1.03 1.04 1.05 1.06 0.97 0.91 0.85 0.76 0.76 0.82 0.90 0.97 0.85 0.76 0.71 0.68 0.73 0.94 1.09 1.33 1.63

GEFSNE_prec_meanprecacc_258.txt.gz
Total_Precipitation_Accumulation
1.83 1.79 1.69 1.55 1.52 1.51 1.51 1.60 1.74 1.57 1.21 0.95 0.91 0.93 0.98 1.02 1.16 1.12 1.03 1.20 1.20 1.13 1.14 1.15 1.16 1.14 1.12 1.18 1.32 1.51 1.60 1.63 1.65 1.72 1.80 1.77 1.69 1.72
1.61 1.65 1.63 1.52 1.45 1.44 1.47 1.52 1.60 1.66 1.43 0.98 0.85 0.87 0.95 1.00 1.12 1.00 0.95 1.13 1.13 1.11 1.07 1.03 1.02 0.99 0.98 0.99 1.05 1.19 1.30 1.37 1.45 1.55 1.72 1.88 1.92 1.93
1.47 1.47 1.46 1.45 1.48 1.45 1.45 1.49 1.53 1.59 1.55 1.14 0.93 0.93 1.03 1.06 1.08 1.00 0.93 0.93 0.94 1.09 1.05 1.00 0.96 0.92 0.91 0.92 0.93 0.97 1.04 1.11 1.22 1.38 1.54 1.71 1.81 1.82
1.38 1.37 1.35 1.35 1.37 1.39 1.43 1.46 1.48 1.48 1.49 1.31 1.05 0.96 0.96 0.97 0.98 0.98 0.93 0.88 0.82 1.00 1.01 0.99 0.95 0.90 0.86 0.86 0.88 0.90 0.91 0.95 1.02 1.11 1.23 1.40 1.57 1.67
1.26 1.27 1.26 1.30 1.34 1.33 1.34 1.33 1.31 1.31 1.34 1.30 1.11 0.94 0.89 0.87 0.93 0.94 0.90 0.86 0.79 0.85 0.91 0.97 0.97 0.94 0.92 0.90 0.92 0.91 0.87 0.82 0.83 0.91 1.01 1.15 1.29 1.43
1.14 1.19 1.21 1.23 1.23 1.24 1.28 1.27 1.24 1.24 1.23 1.25 1.16 1.04 0.97 0.93 0.98 1.01 1.00 0.92 0.88 0.80 0.86 0.89 0.98 0.99 0.91 0.85 0.81 0.84 0.85 0.86 0.89 0.94 1.01 1.07 1.15 1.26
1.05 1.08 1.15 1.27 1.30 1.25 1.21 1.20 1.22 1.27 1.29 1.33 1.26 1.10 0.96 0.92 0.93 0.89 0.93 0.95 0.95 0.91 0.89 0.83 0.78 0.76 0.77 0.79 0.79 0.81 0.86 0.92 0.97 1.00 1.04 1.10 1.15 1.21
1.00 0.98 1.00 1.08 1.11 1.15 1.14 1.11 1.17 1.27 1.38 1.40 1.26 1.05 0.86 0.78 0.77 0.84 0.94 1.02 0.98 0.79 0.77 0.81 0.76 0.77 0.72 0.69 0.81 0.82 0.83 0.87 0.90 0.92 0.95 1.01 1.07 1.13
1.00 0.93 0.89 0.87 0.92 0.86 0.93 0.99 1.01 1.11 1.16 1.07 0.99 0.85 0.77 0.75 0.86 0.97 0.96 0.95 0.83 0.70 0.77 0.87 0.83 0.81 0.74 0.74 0.85 0.79 0.80 0.85 0.88 0.91 0.93 0.94 0.98 1.03
0.86 0.79 0.75 0.70 0.70 0.75 0.78 0.85 0.82 0.80 0.82 0.78 0.75 0.72 0.70 0.74 0.87 1.02 1.05 1.05 0.92 0.78 0.77 0.86 0.77 0.75 0.75 0.75 0.83 0.80 0.79 0.84 0.91 0.95 0.97 0.96 0.96 0.99
0.73 0.69 0.67 0.63 0.72 0.80 0.77 0.79 0.69 0.63 0.70 0.78 0.83 0.83 0.88 0.88 0.88 1.02 1.16 1.26 1.15 0.85 0.69 0.73 0.69 0.65 0.70 0.72 0.74 0.79 0.77 0.79 0.83 0.86 0.89 0.90 0.92 0.95
0.64 0.63 0.70 0.67 0.75 0.82 0.73 0.70 0.65 0.58 0.58 0.64 0.70 0.75 0.75 0.79 0.89 0.87 1.03 1.31 1.22 0.96 0.62 0.68 0.73 0.79 0.99 0.73 0.64 0.65 0.68 0.73 0.79 0.84 0.88 0.92 0.96 0.95
0.63 0.61 0.62 0.75 0.80 0.82 0.74 0.63 0.67 0.70 0.66 0.67 0.68 0.68 0.69 0.72 0.75 0.75 0.83 1.17 1.40 1.11 0.64 0.89 1.10 0.91 1.10 0.88 0.65 0.60 0.60 0.64 0.71 0.79 0.86 0.93 1.03 1.15
0.63 0.58 0.61 0.77 0.79 0.77 0.73 0.72 0.78 0.76 0.65 0.69 0.73 0.71 0.67 0.64 0.64 0.68 0.71 0.78 0.92 1.00 0.78 1.05 1.47 1.18 1.30 1.12 0.76 0.65 0.61 0.63 0.72 0.84 0.90 1.03 1.10 1.18
0.64 0.68 0.70 0.74 0.74 0.70 0.71 0.76 0.73 0.66 0.66 0.70 0.70 0.67 0.64 0.65 0.68 0.74 0.78 0.79 0.79 0.76 0.76 0.83 1.10 1.18 1.41 1.40 0.97 0.69 0.70 0.68 0.69 0.84 0.95 1.02 1.06 1.12
0.71 0.70 0.68 0.66 0.69 0.69 0.68 0.67 0.66 0.67 0.72 0.74 0.72 0.69 0.70 0.74 0.79 0.81 0.85 0.85 0.90 0.83 0.75 0.73 0.82 1.12 1.32 1.08 1.07 0.92 0.77 0.87 0.80 0.89 0.99 1.03 1.07 1.12
0.76 0.71 0.66 0.64 0.64 0.64 0.62 0.61 0.63 0.68 0.74 0.73 0.78 0.82 0.82 0.81 0.80 0.80 0.89 0.94 0.98 0.82 0.73 0.72 0.77 0.87 0.99 1.04 1.08 0.90 0.80 0.85 0.94 1.07 1.23 1.27 1.17 1.20
0.84 0.72 0.63 0.60 0.60 0.59 0.60 0.62 0.64 0.67 0.72 0.80 0.85 0.89 0.92 0.92 0.88 0.82 0.86 0.96 0.97 0.81 0.74 0.72 0.81 0.99 0.98 0.90 0.88 0.93 0.93 0.99 1.05 1.12 1.30 1.50 1.34 1.17
0.81 0.66 0.56 0.53 0.54 0.58 0.62 0.66 0.67 0.66 0.74 0.87 0.94 0.98 1.02 1.00 0.97 0.93 0.88 0.90 0.89 0.80 0.76 0.78 0.94 1.30 1.34 0.91 0.67 0.80 1.12 1.20 1.15 1.18 1.27 1.48 1.63 1.39
0.68 0.62 0.59 0.58 0.60 0.64 0.67 0.70 0.73 0.75 0.81 0.86 0.92 0.99 1.09 1.13 1.07 0.97 0.93 0.94 0.95 0.89 0.80 0.75 0.84 1.23 1.67 1.42 1.08 0.84 0.94 1.27 1.51 1.55 1.34 1.20 1.26 1.25
0.60 0.60 0.63 0.67 0.71 0.73 0.75 0.77 0.81 0.85 0.84 0.89 0.92 0.97 1.07 1.19 1.10 0.96 0.97 0.97 1.03 1.01 0.91 0.72 0.70 0.91 1.29 1.52 1.30 0.87 0.88 1.00 1.31 1.75 1.70 1.50 1.28 1.14
0.60 0.66 0.70 0.75 0.81 0.85 0.87 0.88 0.89 0.86 0.87 0.92 0.93 0.95 1.01 1.13 1.14 1.04 1.03 1.06 1.01 0.97 0.92 0.79 0.76 0.88 1.11 1.36 1.14 0.82 0.81 0.80 0.82 0.91 1.27 1.80 2.35 2.44
0.67 0.72 0.75 0.80 0.85 0.90 0.92 0.92 0.90 0.85 0.84 0.94 0.98 0.98 1.02 1.07 1.03 1.08 1.09 1.10 1.11 1.04 0.98 0.91 0.81 0.80 0.86 0.94 1.01 0.89 0.79 0.75 0.71 0.76 0.97 1.11 1.35 1.64